Regional Weather Roundup
Issued by NWS

Home | Current Version | Previous Version | Graphics & Text | Print | Product List | Glossary On
Versions: 1 2 3 4 5 6 7 8 9 10 11 12 13 14 15 16 17 18 19 20 21 22 23 24 25 26 27 28 29 30 31 32 33 34 35 36 37 38 39 40 41 42 43 44 45 46 47 48 49 50
000
ASUS45 KABQ 252301
RWRNM
NEW MEXICO REGIONAL WEATHER ROUNDUP
NATIONAL WEATHER SERVICE ALBUQUERQUE NM
500 PM MDT SUN SEP 25 2016

NOTE: "FAIR" MEANS FEW OR NO CLOUDS BELOW 12,000 FEET AGL WITH NO
       SIGNIFICANT WEATHER OR OBSTRUCTIONS TO VISION.

      THIS PRODUCT IS RELEASED AS TWO VERSIONS.  ONE VERSION NEAR
      THE TOP OF THE HOUR CONTAINING PRELIMINARY DATA FROM ALBUQUERQUE
      AND OTHER STATIONS.  A FINAL VERSION WITH ADDITIONAL DATA IS
      ISSUED ABOUT 10 MINUTES AFTER THE HOUR.

NMZ501-503-504-510>518-260000-
NORTHWEST PLATEAU/NORTHCENTRAL MOUNTAINS

CITY           SKY/WX    TMP DP  RH WIND       PRES   REMARKS
FARMINGTON     FAIR      72  19  13 SW9       30.30S
LOS ALAMOS     FAIR     N/A N/A N/A S9G18     30.41R
SANTA FE       FAIR      68  33  27 SE16      30.35R
TAOS           FAIR      68  30  24 CALM      30.38S
ANGEL FIRE     FAIR      58  32  38 SE6       30.48R

$$
NMZ402-403-502-505>509-260000-
WESTCENTRAL MOUNTAINS/SOUTHWEST MOUNTAINS

CITY           SKY/WX    TMP DP  RH WIND       PRES   REMARKS
GALLUP         FAIR      72  30  21 NE10G25   30.32S
SILVER CITY    FAIR      76  33  21 E16G25    30.21F

$$
NMZ407-409-411-412-260000-
SOUTHERN DESERTS

CITY           SKY/WX    TMP DP  RH WIND       PRES   REMARKS
DEMING         FAIR      82  34  17 E13       30.13F
LAS CRUCES     FAIR      75  38  27 SE17G24   30.18R
HOLLOMAN AFB   PTSUNNY   77  42  29 NE13      30.14S
ALAMOGORDO     FAIR      75  41  29 E15G21    30.17S
T OR C         FAIR      78  35  21 N16G25    30.19F

$$
NMZ519>523-260000-
CENTRAL VALLEYS/CENTRAL HIGHLANDS

CITY           SKY/WX    TMP DP  RH WIND       PRES   REMARKS
ALBUQUERQUE    PTSUNNY   74  35  24 E20       30.30S
DOUBLE EAGLE   PTSUNNY   72  36  26 SE16      30.33S
CLINES CORNERS FAIR      61  34  36 E16       30.41S
BELEN          NOT AVBL
SOCORRO        FAIR      74  35  24 E13       30.26S

$$
NMZ524>526-539-540-260000-
SOUTHCENTRAL MOUNTAINS

CITY           SKY/WX    TMP DP  RH WIND       PRES   REMARKS
RUIDOSO        CLOUDY    57  39  51 E16       30.41R

$$
NMZ527>531-260000-
NORTHEAST HIGHLANDS/NORTHEAST PLAINS

CITY           SKY/WX    TMP DP  RH WIND       PRES   REMARKS
LAS VEGAS      FAIR      63  32  31 NE9       30.42S
RATON          FAIR      64  32  30 VRB7      30.39S
CLAYTON        FAIR      68  37  32 NE14G24   30.36S

$$
NMZ532>537-260000-
EASTCENTRAL PLAINS

CITY           SKY/WX    TMP DP  RH WIND       PRES   REMARKS
TUCUMCARI      FAIR      75  35  23 E16       30.28S
CANNON AFB     SUNNY     72  40  31 NE18G29   30.27S
CLOVIS AIRPORT FAIR      68  39  34 NE20G30   30.28S

$$
NMZ028-029-538-260000-
SOUTHEAST PLAINS

CITY           SKY/WX    TMP DP  RH WIND       PRES   REMARKS
ROSWELL        CLOUDY    72  43  35 NE15      30.24F
ARTESIA        CLOUDY    68  50  52 N7        30.24S
CARLSBAD       LGT RAIN  61  58  90 CALM      30.22R
HOBBS          PTSUNNY   63  48  59 NE16      30.24S


$$



USA.gov is the U.S. government's official web portal to all federal, state and local government web resources and services.